Hourly Data Report for July 27, 2021

CARIBOU POINT (AUT)
NOVA SCOTIA
Current Station Operator: ECCC - MSC

45°46'00.000" N
62°41'00.000" W
2.40 m
8200774
71415
WBK

Download Data

Hourly Data (July 2021)
Hourly Data Report for July 27, 2021
TIME
LST
Temp Definition
°C
Dew Point Definition
°C
Rel Hum Definition
%
Precip. Amount Definition
mm

Wind Dir Definition
10's deg

Wind Spd Definition
km/h
Visibility Definition
km
Stn Press Definition
kPa
Hmdx Definition


Wind Chill Definition


Weather Definition


00:00 19.7 18.9 95 0.0 23 7   100.90     LegendNANA
01:00 18.9 18.0 95 0.0 19 13   100.89     LegendNANA
02:00 19.0 18.1 95 0.0 21 6   100.89     LegendNANA
03:00 18.7 17.9 95 0.0 20 15   100.91     LegendNANA
04:00 18.7 17.8 95 0.0 22 8   100.91     LegendNANA
05:00 18.5 17.6 95 0.0 23 8   100.92     LegendNANA
06:00 18.9 18.0 95 0.0 21 2   100.93     LegendNANA
07:00 19.9 18.3 90 0.3 21 3   100.93     LegendNANA
08:00 21.1 18.2 84 0.0 27 3   100.93 27   LegendNANA
09:00 22.3 18.9 81 0.0 19 13   100.90 29   LegendNANA
10:00 22.8 19.3 81 0.0 20 14   100.93 30   LegendNANA
11:00 23.9 19.4 76 0.0 21 10   100.93 31   LegendNANA
12:00 24.9 19.5 72 0.0 22 11   100.87 32   LegendNANA
13:00 23.5 19.1 76 0.0 22 11   100.88 30   LegendNANA
14:00 21.8 18.0 79 0.0 15 7   100.87 28   LegendNANA
15:00 21.6 18.3 82 0.0 9 4   100.86 28   LegendNANA
16:00 24.5 20.7 79 0.0 19 14   100.84 33   LegendNANA
17:00 25.1 20.1 74 0.0 21 10   100.83 33   LegendNANA
18:00 24.6 20.2 77 0.0 22 13   100.87 32   LegendNANA
19:00 23.4 19.5 79 0.0 22 10   100.93 31   LegendNANA
20:00 21.6 18.8 84 0.0 22 6   100.94 28   LegendNANA
21:00 21.0 18.8 88 0.0 22 9   100.97 28   LegendNANA
22:00 19.9 18.5 92 0.0 23 7   100.99     LegendNANA
23:00 18.6 17.1 91 0.0 19 11   100.93     LegendNANA

Notes on Data Quality.

Legend

  • E = Estimated
  • M = Missing
  • NA = Not Available*
  • [empty] = Indicates an unobserved value
Date modified: